Location: Melbourne
(37.8666°S, 145.1333°E)
Time: 19:29:58
(UTC+10:00)

Amateur Radio Satellites - All Passes

Search period start: 19 April 2015 18:59
Search period end: 20 April 2015 18:59
Location: Melbourne, 37.8666°S, 145.1333°E

Satellite Date Start Highest point End Downlink Frequencies (MHz)
Time Altitude Azimuth
BRITE-PL 19 Apr 19:19:17 19:20:34 11° 95° (E) 19:22:11 437.365/2234.400
HO-68 19 Apr 19:42:21 19:46:23 16° 91° (E) 19:50:51 435.675
GOMX 1 19 Apr 19:44:44 19:46:39 13° 93° (E) 19:48:46 467.674
SRMSAT 19 Apr 19:49:11 19:51:52 13° 358° (N) 19:54:34 437.500
CUTE-I 19 Apr 19:50:06 19:54:33 25° 247° (WSW) 19:58:50 437.470
Cubesat XI-IV 19 Apr 19:57:40 20:01:48 22° 246° (WSW) 20:05:46 437.490
Cosmos 2499 19 Apr 19:58:18 20:04:16 22° 265° (W) 20:10:08 435.465 / 435.565
STRAND 1 19 Apr 20:01:03 20:03:35 13° 269° (W) 20:05:49 437.568
AAUSAT CUBESAT 2 19 Apr 20:16:47 20:17:51 11° 91° (E) 20:19:10 437.432
PCSat 19 Apr 20:51:55 20:56:48 37° 69° (ENE) 21:01:47 145.827
BRITE-PL 19 Apr 20:54:50 20:59:52 66° 254° (WSW) 21:04:27 437.365/2234.400
DOVE 4 19 Apr 20:55:24 20:59:50 50° 82° (E) 21:04:02 437.250
CINEMA 3 19 Apr 20:57:53 21:01:25 25° 86° (E) 21:04:56 145.822/145.860
COMPASS 1 19 Apr 21:00:51 21:04:56 44° 82° (E) 21:09:00 437.405
O/OREOS (USA 219) 19 Apr 21:06:04 21:10:36 52° 114° (ESE) 21:15:07 437.305
CANX-2 19 Apr 21:10:16 21:14:35 82° 257° (WSW) 21:18:52 2200.000
SEEDS 19 Apr 21:14:29 21:18:46 82° 78° (ENE) 21:23:01 437.485
CUTE 1.7 + AOD 2 19 Apr 21:20:36 21:24:53 69° 256° (WSW) 21:29:08 437.475
GOMX 1 19 Apr 21:20:41 21:25:22 54° 254° (WSW) 21:29:41 467.674
FUNcube-1 19 Apr 21:22:51 21:25:08 15° 89° (E) 21:27:37 145.935
HO-68 19 Apr 21:27:47 21:35:02 81° 253° (WSW) 21:42:13 435.675
Cosmos 2491 19 Apr 21:28:48 21:36:39 36° 108° (ESE) 21:44:34 435.465 / 435.565
POPSAT HIP 1 19 Apr 21:29:28 21:31:44 14° 113° (ESE) 21:34:12 437.405
NANOSAT C BR1 19 Apr 21:29:43 21:31:58 14° 113° (ESE) 21:34:26 145.865
TIGRISAT 19 Apr 21:33:08 21:37:10 32° 109° (ESE) 21:41:12 435.000
UNISAT 6 19 Apr 21:33:55 21:38:00 34° 108° (ESE) 21:42:05 437.425
UKube-1 19 Apr 21:40:23 21:42:46 15° 89° (E) 21:45:20 .
ZACube-1 19 Apr 21:44:08 21:47:43 27° 85° (E) 21:51:19 437.345
CUBEBUG 2 19 Apr 21:46:26 21:50:32 45° 82° (E) 21:54:33 437.445
AAUSAT CUBESAT 2 19 Apr 21:49:44 21:53:53 54° 255° (WSW) 21:57:59 437.432
POLYITAN 1 19 Apr 21:54:10 21:57:49 27° 109° (ESE) 22:01:34 437.675
Oscar 11 19 Apr 22:00:19 22:04:44 86° 78° (ENE) 22:09:05 145.826/435.025
DUCHIFAT 1 19 Apr 22:04:13 22:08:05 33° 108° (ESE) 22:12:02 145.980
DELFI C3 19 Apr 22:12:52 22:17:02 88° 256° (WSW) 22:21:09 145.870
ANTELSAT 19 Apr 22:15:06 22:19:41 84° 283° (WNW) 22:24:13 437.575/2403.000
QB50P1 19 Apr 22:16:31 22:20:40 48° 106° (ESE) 22:24:54 145.935-145.965
DX 1 19 Apr 22:21:19 22:25:37 46° 81° (E) 22:29:51 434.975-435.025
UWE-3 19 Apr 22:28:11 22:32:25 69° 256° (WSW) 22:36:34 435.000/436.395/437.385
BUGSAT 1 19 Apr 22:31:52 22:36:00 50° 106° (ESE) 22:40:14 437.445
DOVE 4 19 Apr 22:34:41 22:37:10 14° 245° (WSW) 22:39:22 437.250
YUBILEINY 19 Apr 22:34:47 22:42:44 43° 91° (E) 22:50:53 435.215
CINEMA 3 19 Apr 22:35:01 22:38:36 24° 250° (WSW) 22:42:00 145.822/145.860
PCSat 19 Apr 22:35:31 22:40:17 30° 232° (SW) 22:45:02 145.827
COMPASS 1 19 Apr 22:37:51 22:40:18 15° 248° (WSW) 22:42:32 437.405
HUMSAT D 19 Apr 22:38:41 22:42:48 56° 81° (E) 22:46:51 437.325/437.525
QB50P2 19 Apr 22:39:40 22:44:01 89° 284° (WNW) 22:48:25 145.880/145.840
O/OREOS (USA 219) 19 Apr 22:47:13 22:49:37 14° 280° (W) 22:51:45 437.305
FUNcube-1 19 Apr 22:57:47 23:01:45 39° 253° (WSW) 23:05:38 145.935
VELOX 1 19 Apr 22:59:05 23:03:33 55° 80° (E) 23:07:56 145.980
POPSAT HIP 1 19 Apr 23:03:02 23:07:15 48° 279° (W) 23:11:30 437.405
NANOSAT C BR1 19 Apr 23:03:15 23:07:27 48° 279° (W) 23:11:42 145.865
TIGRISAT 19 Apr 23:10:23 23:13:58 22° 274° (W) 23:17:26 435.000
UNISAT 6 19 Apr 23:11:21 23:14:52 21° 274° (W) 23:18:14 437.425
AISAT 19 Apr 23:13:54 23:18:28 84° 76° (ENE) 23:22:56 437.250
UKube-1 19 Apr 23:14:59 23:19:12 45° 253° (WSW) 23:23:22 .
AIST 1 19 Apr 23:16:58 23:19:17 14° 110° (ESE) 23:21:48
HO-68 19 Apr 23:17:52 23:21:48 15° 236° (WSW) 23:25:21 435.675
ZACube-1 19 Apr 23:20:40 23:24:00 22° 250° (WSW) 23:27:11 437.345
CUBEBUG 2 19 Apr 23:24:36 23:26:52 14° 246° (WSW) 23:28:57 437.445
Cosmos 2491 19 Apr 23:25:27 23:33:44 46° 269° (W) 23:41:50 435.465 / 435.565
CUBEBUG 1 19 Apr 23:26:07 23:30:31 52° 81° (E) 23:34:51 437.445
ESTCUBE 1 19 Apr 23:27:05 23:31:41 61° 80° (E) 23:36:13 437.505/2401.250
POLYITAN 1 19 Apr 23:30:08 23:33:44 24° 274° (W) 23:37:15 437.675
50 SAT 19 Apr 23:30:38 23:34:30 52° 255° (WSW) 23:38:18 437.505
TISAT 1 19 Apr 23:38:39 23:40:40 13° 90° (E) 23:42:54 437.305
SPROUT 19 Apr 23:40:21 23:43:21 19° 88° (E) 23:46:28 437.525
DUCHIFAT 1 19 Apr 23:40:50 23:44:01 19° 273° (W) 23:47:05 145.980
QB50P1 19 Apr 23:54:36 23:56:52 13° 270° (W) 23:58:56 145.935-145.965
Oscar 19 19 Apr 23:56:55 00:00:40 21° 114° (ESE) 00:04:35 437.125/150
DX 1 19 Apr 23:58:48 00:01:30 16° 246° (WSW) 00:04:02 434.975-435.025
BEESAT 2 20 Apr 00:09:07 00:11:16 14° 135° (SE) 00:13:34 435.950
BUGSAT 1 20 Apr 00:09:46 00:11:50 13° 270° (W) 00:13:42 437.445
BEESAT 3 20 Apr 00:16:37 00:19:30 19° 132° (SE) 00:22:28 437.485
HUMSAT D 20 Apr 00:16:42 00:18:08 11° 246° (WSW) 00:19:20 437.325/437.525
YUBILEINY 20 Apr 00:31:38 00:39:40 38° 253° (WSW) 00:47:38 435.215
VELOX 1 20 Apr 00:37:17 00:39:41 14° 245° (WSW) 00:41:51 145.980
AIST 1 20 Apr 00:52:59 00:57:18 46° 273° (W) 01:01:32
SO-50 20 Apr 00:53:09 00:57:49 74° 60° (ENE) 01:02:23 436.795
CUBEBUG 1 20 Apr 01:03:59 01:06:28 14° 246° (WSW) 01:08:45 437.445
ITUPSAT 1 20 Apr 01:04:03 01:07:28 19° 88° (E) 01:11:01 437.325
ESTCUBE 1 20 Apr 01:05:51 01:08:05 13° 245° (WSW) 01:10:05 437.505/2401.250
TISAT 1 20 Apr 01:12:38 01:16:48 46° 254° (WSW) 01:20:50 437.305
SPROUT 20 Apr 01:15:35 01:19:35 34° 252° (WSW) 01:23:29 437.525
Oscar 19 20 Apr 01:34:44 01:39:44 45° 279° (W) 01:44:45 437.125/150
BEESAT 20 Apr 01:38:42 01:43:22 45° 81° (E) 01:48:00 436.000
SWISSCUBE 20 Apr 01:39:54 01:44:39 51° 81° (E) 01:49:22 437.505
Gurwin Techsat 1B 20 Apr 01:40:33 01:45:42 53° 107° (ESE) 01:50:57 435.225
ISS 20 Apr 01:41:38 01:44:48 51° 43° (NE) 01:48:01 145.825
BEESAT 2 20 Apr 01:45:50 01:49:45 54° 297° (WNW) 01:53:39 435.950
ITAMSAT 1 20 Apr 01:52:53 01:58:06 83° 104° (ESE) 02:03:26 435.822/435.867
BEESAT 3 20 Apr 01:53:59 01:57:38 35° 295° (WNW) 02:01:17 437.485
Cosmos 2504 20 Apr 01:56:23 02:03:37 77° 85° (E) 02:10:52 435.465 / 435.565
KKS-1 20 Apr 01:56:31 01:57:39 11° 91° (E) 01:59:05 437.445
AIST 2 20 Apr 02:01:46 02:05:53 66° 122° (ESE) 02:10:00 435.215
JAS-2 20 Apr 02:34:18 02:38:00 21° 114° (ESE) 02:41:53 435.910
SO-50 20 Apr 02:36:18 02:38:53 14° 223° (SW) 02:41:17 436.795
AO-7 20 Apr 02:38:45 02:46:29 44° 116° (ESE) 02:54:22 29.400- 29.500
RS-15 20 Apr 02:40:55 02:52:47 60° 67° (ENE) 03:04:41 29.354- 29.394
ITUPSAT 1 20 Apr 02:40:58 02:45:35 41° 252° (WSW) 02:50:06 437.325
GONETS M04 20 Apr 03:03:03 03:05:01 11° 103° (ESE) 03:07:49
STARS 20 Apr 03:06:01 03:10:16 43° 81° (E) 03:14:28 437.465
HORYU 2 20 Apr 03:09:27 03:13:56 85° 103° (ESE) 03:18:28 437.375
BEESAT 20 Apr 03:17:30 03:20:53 19° 246° (WSW) 03:24:07 436.000
ISS 20 Apr 03:18:51 03:21:23 20° 206° (SSW) 03:23:54 145.825
SWISSCUBE 20 Apr 03:18:59 03:22:08 17° 246° (WSW) 03:25:04 437.505
Gurwin Techsat 1B 20 Apr 03:22:25 03:26:04 18° 271° (W) 03:29:32 435.225
KKS-1 20 Apr 03:30:20 03:34:48 61° 255° (WSW) 03:39:12 437.445
ITAMSAT 1 20 Apr 03:37:26 03:38:24 10° 267° (W) 03:38:56 435.822/435.867
Cosmos 2504 20 Apr 03:53:29 03:58:01 16° 244° (WSW) 04:02:10 435.465 / 435.565
JAS-2 20 Apr 04:17:54 04:22:55 42° 278° (W) 04:27:53 435.910
AO-7 20 Apr 04:31:32 04:39:20 40° 278° (W) 04:47:06 29.400- 29.500
MOZHAYETS 4 20 Apr 04:42:13 04:46:46 49° 81° (E) 04:51:17
STARS 20 Apr 04:43:31 04:46:24 17° 247° (WSW) 04:49:05 437.465
DANDE 20 Apr 04:46:18 04:53:05 29° 90° (E) 04:59:28 436.750
GONETS M04 20 Apr 04:51:48 05:00:32 72° 86° (E) 05:09:19
CUSAT 1 20 Apr 04:52:51 05:00:05 37° 87° (E) 05:06:31 437.405
RS-15 20 Apr 04:54:14 05:05:54 44° 225° (SW) 05:17:15 29.354- 29.394
CUTE-I 20 Apr 05:29:32 05:34:45 55° 107° (ESE) 05:40:05 437.470
M-CUBED/EXP-1 PRIME 20 Apr 05:35:28 05:37:37 15° 82° (E) 05:40:02 437.505
Cubesat XI-IV 20 Apr 05:36:54 05:42:12 65° 106° (ESE) 05:47:37 437.490
PCSat 20 Apr 05:41:43 05:45:54 23° 131° (SE) 05:50:12 145.827
VERMONT LUNAR 20 Apr 05:49:37 05:51:10 13° 35° (NE) 05:52:48 437.305
CUBESAT XI-V 20 Apr 05:59:22 06:03:15 25° 86° (E) 06:07:12 437.345
HO-68 20 Apr 06:12:39 06:14:21 11° 126° (SE) 06:16:32 435.675
PRISM 20 Apr 06:19:57 06:23:24 24° 85° (E) 06:26:53 437.425
MOZHAYETS 4 20 Apr 06:20:42 06:23:38 16° 247° (WSW) 06:26:21
AUBIESAT-1 20 Apr 06:23:07 06:26:51 49° 75° (ENE) 06:30:53 437.475
BRITE-PL 20 Apr 06:26:47 06:29:55 16° 116° (ESE) 06:33:20 437.365/2234.400
DANDE 20 Apr 06:27:40 06:36:09 61° 258° (WSW) 06:43:32 436.750
STRAND 1 20 Apr 06:31:43 06:36:00 26° 86° (E) 06:40:22 437.568
CUSAT 1 20 Apr 06:35:08 06:42:49 43° 256° (WSW) 06:49:20 437.405
Cosmos 2499 20 Apr 06:38:54 06:45:44 56° 88° (E) 06:52:45 435.465 / 435.565
PHONESAT 2.4 20 Apr 06:46:22 06:48:12 14° 35° (NE) 06:50:08 2401.200-2431.200
GOMX 1 20 Apr 06:50:05 06:53:18 16° 115° (ESE) 06:56:43 467.674
GONETS M04 20 Apr 06:51:34 06:58:22 23° 245° (WSW) 07:04:48
M-CUBED/EXP-1 PRIME 20 Apr 07:09:05 07:12:38 38° 249° (WSW) 07:16:25 437.505
CUTE-I 20 Apr 07:11:38 07:15:15 17° 271° (W) 07:18:40 437.470
RS-15 20 Apr 07:14:53 07:22:53 19° 193° (SSW) 07:30:28 29.354- 29.394
Cubesat XI-IV 20 Apr 07:19:50 07:22:53 14° 269° (W) 07:25:37 437.490
PCSat 20 Apr 07:24:23 07:29:41 52° 293° (WNW) 07:34:55 145.827
VERMONT LUNAR 20 Apr 07:25:00 07:28:18 62° 21° (NNE) 07:31:38 437.305
CUBESAT XI-V 20 Apr 07:36:29 07:40:44 31° 251° (WSW) 07:44:51 437.345
COMPASS 1 20 Apr 07:50:54 07:54:17 25° 109° (ESE) 07:57:46 437.405
HO-68 20 Apr 07:53:50 08:00:52 64° 109° (ESE) 08:08:01 435.675
PRISM 20 Apr 07:55:13 07:58:50 26° 250° (WSW) 08:02:21 437.425
CINEMA 3 20 Apr 07:57:36 08:01:26 23° 111° (ESE) 08:05:19 145.822/145.860
DOVE 4 20 Apr 07:58:03 08:03:09 47° 107° (ESE) 08:08:11 437.250
AUBIESAT-1 20 Apr 07:59:40 08:01:26 13° 244° (WSW) 08:03:04 437.475
CANX-2 20 Apr 08:01:17 08:05:26 55° 105° (ESE) 08:09:39 2200.000
BRITE-PL 20 Apr 08:02:07 08:07:49 76° 281° (WNW) 08:13:36 437.365/2234.400
SEEDS 20 Apr 08:04:46 08:08:46 44° 106° (ESE) 08:12:51 437.485
STRAND 1 20 Apr 08:10:32 08:15:16 35° 250° (WSW) 08:19:54 437.568
ISS 20 Apr 08:10:38 08:13:40 33° 148° (SSE) 08:16:42 145.825
CUTE 1.7 + AOD 2 20 Apr 08:11:26 08:15:39 66° 104° (ESE) 08:19:55 437.475
FUNcube-1 20 Apr 08:18:24 08:19:41 11° 114° (ESE) 08:21:13 145.935
DANDE 20 Apr 08:18:27 08:20:45 11° 241° (WSW) 08:22:18 436.750
PHONESAT 2.4 20 Apr 08:22:33 08:26:03 63° 21° (NNE) 08:29:36 2401.200-2431.200
GOMX 1 20 Apr 08:25:24 08:30:54 68° 281° (W) 08:36:25 467.674
Cosmos 2499 20 Apr 08:33:53 08:39:26 23° 248° (WSW) 08:44:49 435.465 / 435.565
UKube-1 20 Apr 08:35:14 08:36:21 11° 116° (ESE) 08:37:44 .
AAUSAT CUBESAT 2 20 Apr 08:38:28 08:42:38 78° 102° (ESE) 08:46:51 437.432
ZACube-1 20 Apr 08:38:51 08:42:03 20° 111° (ESE) 08:45:20 437.345
CUBEBUG 2 20 Apr 08:42:41 08:46:53 34° 108° (ESE) 08:51:04 437.445
YUBILEINY 20 Apr 08:47:58 08:53:36 19° 117° (ESE) 08:59:44 435.215
Oscar 11 20 Apr 08:53:10 08:57:22 52° 106° (ESE) 09:01:39 145.826/435.025
DELFI C3 20 Apr 08:58:42 09:02:31 43° 106° (ESE) 09:06:26 145.870
VERMONT LUNAR 20 Apr 09:02:37 09:05:54 54° 185° (S) 09:09:14 437.305
DX 1 20 Apr 09:15:16 09:19:11 33° 109° (ESE) 09:23:13 434.975-435.025
UWE-3 20 Apr 09:22:57 09:27:33 76° 103° (ESE) 09:32:06 435.000/436.395/437.385
COMPASS 1 20 Apr 09:26:27 09:29:55 24° 274° (W) 09:33:20 437.405
SO-50 20 Apr 09:26:33 09:30:39 38° 127° (SE) 09:34:46 436.795
HUMSAT D 20 Apr 09:28:53 09:32:40 32° 108° (ESE) 09:36:31 437.325/437.525
RS-15 20 Apr 09:33:06 09:41:33 22° 158° (SSE) 09:50:02 29.354- 29.394
CINEMA 3 20 Apr 09:33:48 09:38:26 37° 277° (W) 09:42:58 145.822/145.860
DOVE 4 20 Apr 09:37:05 09:41:06 21° 272° (W) 09:44:55 437.250
CANX-2 20 Apr 09:40:24 09:41:48 11° 269° (W) 09:42:56 2200.000
SEEDS 20 Apr 09:42:37 09:44:52 14° 270° (W) 09:46:56 437.485
HO-68 20 Apr 09:43:42 09:49:11 22° 272° (W) 09:54:24 435.675
ISS 20 Apr 09:47:14 09:49:56 23° 312° (NW) 09:52:35 145.825
FUNcube-1 20 Apr 09:51:03 09:55:33 67° 281° (W) 10:00:00 145.935
VELOX 1 20 Apr 09:54:55 09:59:07 39° 108° (ESE) 10:03:23 145.980
PHONESAT 2.4 20 Apr 10:00:53 10:04:24 56° 186° (S) 10:07:56 2401.200-2431.200
UKube-1 20 Apr 10:07:37 10:11:59 67° 281° (WNW) 10:16:25 .
AISAT 20 Apr 10:09:42 10:14:10 60° 106° (ESE) 10:18:41 437.250
ANTELSAT 20 Apr 10:09:45 10:13:04 22° 86° (E) 10:16:29 437.575/2403.000
50 SAT 20 Apr 10:14:00 10:17:59 67° 105° (ESE) 10:21:58 437.505
ZACube-1 20 Apr 10:14:01 10:18:12 36° 277° (W) 10:22:19 437.345
CUBEBUG 2 20 Apr 10:19:58 10:23:39 22° 273° (W) 10:27:10 437.445
CUBEBUG 1 20 Apr 10:20:32 10:24:33 35° 108° (ESE) 10:28:41 437.445
ESTCUBE 1 20 Apr 10:24:57 10:29:15 44° 107° (ESE) 10:33:38 437.505/2401.250
Cosmos 2491 20 Apr 10:27:25 10:35:33 44° 91° (E) 10:43:50 435.465 / 435.565
QB50P2 20 Apr 10:28:10 10:30:57 17° 88° (E) 10:33:51 145.880/145.840
Oscar 11 20 Apr 10:31:59 10:33:57 12° 269° (W) 10:35:40 145.826/435.025
SPROUT 20 Apr 10:34:11 10:36:00 13° 114° (ESE) 10:38:04 437.525
DELFI C3 20 Apr 10:35:58 10:37:58 13° 270° (W) 10:39:46 145.870
VERMONT LUNAR 20 Apr 10:40:18 10:43:39 67° 169° (SSE) 10:47:02 437.305
YUBILEINY 20 Apr 10:42:52 10:51:46 85° 276° (W) 11:00:36 435.215
NANOSAT C BR1 20 Apr 10:50:24 10:54:10 30° 84° (E) 10:57:56 145.865
POPSAT HIP 1 20 Apr 10:50:26 10:54:13 30° 84° (E) 10:57:59 437.405
DX 1 20 Apr 10:52:09 10:55:32 21° 273° (W) 10:58:49 434.975-435.025
TIGRISAT 20 Apr 11:02:44 11:07:05 89° 80° (E) 11:11:23 435.000
UNISAT 6 20 Apr 11:03:52 11:08:14 86° 261° (W) 11:12:32 437.425
HUMSAT D 20 Apr 11:05:21 11:08:31 19° 273° (W) 11:11:34 437.325/437.525
SO-50 20 Apr 11:07:43 11:10:56 19° 292° (WNW) 11:14:02 436.795
O/OREOS (USA 219) 20 Apr 11:16:17 11:20:46 88° 70° (ENE) 11:25:21 437.305
POLYITAN 1 20 Apr 11:16:37 11:20:54 64° 79° (E) 11:25:06 437.675
DUCHIFAT 1 20 Apr 11:26:07 11:30:26 80° 78° (ENE) 11:34:40 145.980
VELOX 1 20 Apr 11:32:45 11:35:52 18° 272° (W) 11:38:52 145.980
QB50P1 20 Apr 11:39:10 11:43:29 70° 256° (WSW) 11:47:41 145.935-145.965
PHONESAT 2.4 20 Apr 11:39:19 11:42:53 69° 168° (SSE) 11:46:28 2401.200-2431.200
RS-15 20 Apr 11:45:48 11:57:22 60° 128° (SE) 12:08:22 29.354- 29.394
ANTELSAT 20 Apr 11:46:08 11:49:55 29° 251° (WSW) 11:53:35 437.575/2403.000
AISAT 20 Apr 11:49:32 11:51:15 12° 269° (W) 11:52:40 437.250
Cosmos 2504 20 Apr 11:50:25 11:56:33 25° 111° (ESE) 12:03:15 435.465 / 435.565
BUGSAT 1 20 Apr 11:51:21 11:55:38 73° 256° (WSW) 11:59:46 437.445
CUBEBUG 1 20 Apr 11:57:44 12:01:03 20° 273° (W) 12:04:16 437.445
TISAT 1 20 Apr 12:02:31 12:06:50 80° 281° (W) 12:11:12 437.305
QB50P2 20 Apr 12:03:03 12:07:01 36° 252° (WSW) 12:10:54 145.880/145.840
ESTCUBE 1 20 Apr 12:03:33 12:06:24 16° 271° (W) 12:09:06 437.505/2401.250
SPROUT 20 Apr 12:07:21 12:11:39 57° 280° (W) 12:16:01 437.525
ITUPSAT 1 20 Apr 12:09:36 12:12:53 19° 113° (ESE) 12:16:22 437.325
VERMONT LUNAR 20 Apr 12:17:59 12:21:06 35° 333° (NNW) 12:24:14 437.305
Cosmos 2491 20 Apr 12:24:24 12:32:33 38° 252° (WSW) 12:40:35 435.465 / 435.565
NANOSAT C BR1 20 Apr 12:26:34 12:29:52 21° 249° (WSW) 12:33:01 145.865
POPSAT HIP 1 20 Apr 12:26:39 12:29:57 21° 249° (WSW) 12:33:05 437.405
YUBILEINY 20 Apr 12:42:47 12:47:26 15° 259° (W) 12:51:27 435.215
BEESAT 20 Apr 12:43:26 12:47:56 42° 108° (ESE) 12:52:31 436.000
SWISSCUBE 20 Apr 12:44:40 12:49:15 48° 107° (ESE) 12:53:56 437.505
POLYITAN 1 20 Apr 12:55:08 12:56:19 11° 245° (WSW) 12:57:14 437.675
PHONESAT 2.4 20 Apr 13:17:44 13:21:04 36° 333° (NNW) 13:24:23 2401.200-2431.200
AIST 1 20 Apr 13:20:06 13:24:26 71° 262° (W) 13:28:53
Cosmos 2504 20 Apr 13:42:43 13:50:30 62° 273° (W) 13:58:45 435.465 / 435.565
ITUPSAT 1 20 Apr 13:45:55 13:50:30 43° 278° (W) 13:55:06 437.325
Oscar 19 20 Apr 13:47:53 13:53:06 74° 78° (ENE) 13:58:14 437.125/150
RS-15 20 Apr 13:59:04 14:09:19 37° 287° (WNW) 14:18:52 29.354- 29.394
Gurwin Techsat 1B 20 Apr 13:59:13 14:03:29 24° 87° (E) 14:07:51 435.225
STARS 20 Apr 14:01:17 14:05:14 31° 109° (ESE) 14:09:14 437.465
ITAMSAT 1 20 Apr 14:07:59 14:12:45 34° 84° (E) 14:17:32 435.822/435.867
BEESAT 20 Apr 14:22:38 14:26:01 18° 272° (W) 14:29:16 436.000
SWISSCUBE 20 Apr 14:24:21 14:27:27 16° 271° (W) 14:30:21 437.505
KKS-1 20 Apr 14:26:19 14:30:51 85° 283° (WNW) 14:35:26 437.445
AO-7 20 Apr 14:45:13 14:48:27 13° 94° (E) 14:52:25 29.400- 29.500
HORYU 2 20 Apr 15:03:35 15:06:41 19° 87° (E) 15:09:56 437.375
GONETS M04 20 Apr 15:04:54 15:12:27 32° 110° (ESE) 15:20:08
JAS-2 20 Apr 15:26:58 15:32:18 27° 86° (E) 15:38:17 435.910
Oscar 19 20 Apr 15:29:23 15:31:52 13° 243° (WSW) 15:34:04 437.125/150
STARS 20 Apr 15:38:12 15:41:44 22° 274° (W) 15:45:12 437.465
BEESAT 2 20 Apr 15:38:15 15:41:57 40° 64° (ENE) 15:45:41 435.950
Gurwin Techsat 1B 20 Apr 15:38:37 15:43:37 39° 250° (WSW) 15:48:31 435.225
MOZHAYETS 4 20 Apr 15:42:29 15:46:41 37° 108° (ESE) 15:50:58
BEESAT 3 20 Apr 15:45:08 15:49:01 60° 62° (ENE) 15:52:55 437.485
ITAMSAT 1 20 Apr 15:47:39 15:52:10 28° 248° (WSW) 15:56:30 435.822/435.867
AIST 2 20 Apr 15:59:12 16:02:12 21° 68° (ENE) 16:05:18 435.215
JUGNU 20 Apr 16:03:09 16:05:08 12° 7° (N) 16:07:12 437.505
M-CUBED/EXP-1 PRIME 20 Apr 16:23:58 16:25:27 13° 116° (ESE) 16:27:05 437.505
Cosmos 2499 20 Apr 16:31:56 16:36:59 18° 115° (ESE) 16:42:40 435.465 / 435.565
AO-7 20 Apr 16:34:17 16:42:45 79° 74° (ENE) 16:51:06 29.400- 29.500
HORYU 2 20 Apr 16:39:21 16:43:30 36° 252° (WSW) 16:47:34 437.375
GONETS M04 20 Apr 17:01:17 17:09:41 52° 270° (W) 17:17:57
CUBESAT XI-V 20 Apr 17:01:30 17:04:54 21° 112° (ESE) 17:08:28 437.345
PRISM 20 Apr 17:09:39 17:11:54 15° 113° (ESE) 17:14:21 437.425
AUBIESAT-1 20 Apr 17:10:33 17:13:50 43° 110° (ESE) 17:17:03 437.475
JAS-2 20 Apr 17:11:25 17:17:32 50° 252° (WSW) 17:24:19 435.910
DANDE 20 Apr 17:15:21 17:19:18 61° 275° (W) 17:22:20 436.750
BEESAT 2 20 Apr 17:17:30 17:20:15 17° 227° (SW) 17:22:56 435.950
CUSAT 1 20 Apr 17:18:45 17:21:57 32° 272° (W) 17:24:34 437.405
MOZHAYETS 4 20 Apr 17:20:44 17:24:05 19° 272° (W) 17:27:19
BEESAT 3 20 Apr 17:25:31 17:27:27 13° 224° (SW) 17:29:15 437.485
AIST 2 20 Apr 17:36:57 17:40:37 31° 232° (SW) 17:44:15 435.215
STRAND 1 20 Apr 17:45:48 17:50:17 32° 111° (ESE) 17:54:54 437.568
SRMSAT 20 Apr 17:48:26 17:50:38 12° 7° (N) 17:52:53 437.500
CUTE-I 20 Apr 17:49:07 17:53:31 25° 86° (E) 17:57:59 437.470
JUGNU 20 Apr 17:50:42 17:53:20 13° 357° (N) 17:55:57 437.505
Cubesat XI-IV 20 Apr 17:56:31 18:01:14 30° 85° (E) 18:05:59 437.490
M-CUBED/EXP-1 PRIME 20 Apr 17:57:02 18:00:11 32° 283° (WNW) 18:03:15 437.505
Cosmos 2499 20 Apr 18:23:06 18:31:09 84° 276° (W) 18:39:44 435.465 / 435.565
AO-7 20 Apr 18:28:27 18:34:46 23° 237° (WSW) 18:40:44 29.400- 29.500
CUBESAT XI-V 20 Apr 18:37:44 18:42:07 38° 277° (W) 18:46:31 437.345
PRISM 20 Apr 18:43:05 18:47:02 43° 279° (W) 18:51:03 437.425
